Regional Weather Roundup
Issued by NWS

Home | Current Version | Previous Version | Text Only | Print | Product List | Glossary Off
Versions: 1 2 3 4 5 6 7 8 9 10 11 12 13 14 15 16 17 18 19 20 21 22 23 24 25 26 27 28 29 30 31 32 33 34 35 36 37 38 39 40 41 42 43 44 45 46 47 48 49 50

000
ASUS43 KLSX 311510
RWRMO

WEATHER SUMMARY FOR MISSOURI
NATIONAL WEATHER SERVICE SPRINGFIELD MO
1000 AM CDT TUE MAY 31 2016

NOTE: "FAIR" INDICATES FEW OR NO CLOUDS BELOW 12,000 FEET WITH NO
       SIGNIFICANT WEATHER AND/OR OBSTRUCTIONS TO VISIBILITY.
       CURRENT SKY AND/OR WEATHER CONDITIONS ARE NOT AVAILABLE FOR
       CHILLICOTHE AND FARMINGTON.

MOZ001>031-035>038-043-044-053-054-311600-
...NORTHERN AND WESTERN MISSOURI...

CITY           SKY/WX    TMP DP  RH WIND       PRES   REMARKS
KANSAS CTY INT CLOUDY    68  63  84 S7        29.97R
KANSAS C DTWN  CLOUDY    71  63  75 S7        29.96R
LEE`S SUMMIT   CLOUDY    69  63  81 S9        29.96S
ST JOSEPH      CLOUDY    71  63  75 S7        29.95R
CHILLICOTHE      N/A     71  64  78 SE6       29.95F
KIRKSVILLE     CLOUDY    69  63  81 S5        29.98S

$$
MOZ066>068-077>081-088>096-101>105-311600-
...SOUTHWEST MISSOURI...

CITY           SKY/WX    TMP DP  RH WIND       PRES   REMARKS
SPRINGFIELD    CLOUDY    72  63  73 S7        29.98S
JOPLIN         CLOUDY    72  67  84 W6        29.98R
BRANSON        CLOUDY    68  64  88 E10       30.01R

$$
MOZ032>034-039>042-045>050-055>058-069>072-311600-
...CENTRAL MISSOURI...

CITY           SKY/WX    TMP DP  RH WIND       PRES   REMARKS
COLUMBIA       CLOUDY    71  62  73 SE9       29.99S
JEFFERSON CITY CLOUDY    71  62  73 E6        29.98S
ROLLA          MOSUNNY   71  62  73 SE8       29.99R
SEDALIA        MOSUNNY   73  65  75 SE10      29.96F
WHITEMAN AFB   CLOUDY    71  71  98 SW13      29.95R
WARRENSBURG    CLOUDY    70  64  83 SW9       29.96R

$$
MOZ051-052-059>065-311600-
...EAST CENTRAL MISSOURI...

CITY           SKY/WX    TMP DP  RH WIND       PRES   REMARKS
ST LOUIS INTL  CLOUDY    74  61  63 N6        29.99F
SPIRIT OF STL  LGT RAIN  71  67  87 CALM      29.98S
ST CHARLES     CLOUDY    72  65  78 E5        29.98F

$$
MOZ072>076-082>087-097>100-106>115-311600-
...SOUTH CENTRAL AND SOUTHEAST MISSOURI...

CITY           SKY/WX    TMP DP  RH WIND       PRES   REMARKS
CAPE GIRARDEAU CLOUDY    75  66  73 W8        29.98S
FARMINGTON     LGT RAIN  69  64  84 VRB5      30.02R
POPLAR BLUFF   CLOUDY    70  67  90 SE3       29.99R
WEST PLAINS    CLOUDY    68  63  84 CALM      30.03S

$$




USA.gov is the U.S. government's official web portal to all federal, state and local government web resources and services.